FW9690 Weather Reports


time (UTC)temp
C
wind
direction
speed
KPH
gust
KPH
rain 1hr
cm
rain 24hr
cm
rain mn
cm
humidity
%
barometer
mb
20260506024630 20 314 11.3 14.5 0.00 0.00 0.00 40 985.4
20260506023026 21 310 11.3 14.5 0.00 0.00 0.00 38 985.4
20260506021529 21 323 11.3 16.1 0.00 0.00 0.00 39 985.4
20260506020017 21 306 12.9 16.1 0.00 0.00 0.00 38 985.1
20260506014618 22 307 14.5 19.3 0.00 0.00 0.00 35 985.0
20260506013015 22 309 14.5 20.9 0.00 0.00 0.00 34 984.9
20260506011514 23 305 12.9 20.9 0.00 0.00 0.00 33 984.9
20260506010033 23 296 16.1 20.9 0.00 0.00 0.00 32 984.8
20260506004613 24 267 12.9 20.9 0.00 0.00 0.00 30 984.7
20260506003014 25 268 16.1 27.4 0.00 0.00 0.00 29 984.6
20260506001513 25 244 24.1 33.8 0.00 0.00 0.00 28 984.7
20260506000013 25 244 20.9 37.0 0.00 0.00 0.00 28 984.7
20260505234614 26 234 30.6 56.3 0.00 0.00 0.00 28 984.7
20260505233022 25 275 11.3 32.2 0.00 0.00 0.00 29 984.7
20260505231517 24 216 20.9 35.4 0.00 0.00 0.00 30 984.8
20260505230015 25 223 24.1 40.2 0.00 0.00 0.00 30 985.0
20260505224613 23 212 16.1 24.1 0.00 0.00 0.00 33 985.0
20260505223012 23 226 17.7 37.0 0.00 0.00 0.00 33 985.1
20260505221511 23 225 32.2 40.2 0.00 0.00 0.00 32 985.2
20260505220012 23 230 29.0 40.2 0.00 0.00 0.00 32 985.5
20260505214626 23 246 33.8 49.9 0.00 0.00 0.00 31 985.5
20260505213011 23 242 33.8 48.3 0.00 0.00 0.00 30 985.6
20260505211512 23 242 29.0 46.7 0.00 0.00 0.00 30 985.7
20260505210010 24 248 30.6 43.5 0.00 0.00 0.00 29 985.9
20260505204608 24 244 35.4 48.3 0.00 0.00 0.00 29 985.7
20260505203016 24 235 24.1 35.4 0.00 0.00 0.00 28 985.9
20260505201505 24 236 24.1 35.4 0.00 0.00 0.00 29 986.2
20260505200004 24 257 22.5 35.4 0.00 0.00 0.00 29 986.1
20260505194609 24 233 22.5 38.6 0.00 0.00 0.00 28 986.3
20260505193055 24 241 30.6 40.2 0.00 0.00 0.00 28 986.2
20260505191556 24 251 16.1 29.0 0.00 0.00 0.00 29 986.0
20260505190053 25 244 25.7 46.7 0.00 0.00 0.00 29 986.3
20260505184554 24 261 29.0 43.5 0.00 0.00 0.00 29 986.4
20260505183103 24 263 29.0 43.5 0.00 0.00 0.00 29 986.7
20260505181558 24 286 27.4 43.5 0.00 0.00 0.00 30 986.8
20260505180108 23 259 30.6 49.9 0.00 0.00 0.00 31 986.7
20260505174604 23 279 33.8 46.7 0.00 0.00 0.00 31 986.8
20260505173011 23 279 33.8 49.9 0.00 0.00 0.00 31 986.8
20260505171504 23 259 32.2 49.9 0.00 0.00 0.00 31 986.8
20260505170003 23 269 33.8 46.7 0.00 0.00 0.00 31 986.9
20260505164603 22 251 30.6 38.6 0.00 0.00 0.00 30 986.9
20260505163056 22 252 25.7 40.2 0.00 0.00 0.00 30 987.0
20260505161614 22 259 24.1 33.8 0.00 0.00 0.00 31 987.0
20260505160103 22 255 29.0 41.8 0.00 0.00 0.00 30 987.0
20260505153051 22 270 29.0 41.8 0.00 0.00 0.00 29 986.7
20260505151549 22 289 29.0 41.8 0.00 0.00 0.00 30 986.7
20260505124548 18 279 12.9 17.7 0.00 0.00 0.00 36 985.1
20260505123018 19 254 12.9 17.7 0.00 0.00 0.00 34 985.0
20260505121517 20 252 12.9 20.9 0.00 0.00 0.00 32 984.9
20260505120017 20 271 17.7 24.1 0.00 0.00 0.00 31 984.8
20260505114515 20 280 19.3 25.7 0.00 0.00 0.00 30 984.7
20260505113005 20 271 17.7 22.5 0.00 0.00 0.00 31 984.7
20260505111503 18 259 14.5 19.3 0.00 0.00 0.00 35 984.6
20260505110106 18 272 11.3 14.5 0.00 0.00 0.00 37 984.5
20260505101557 19 254 12.9 14.5 0.00 0.00 0.00 37 984.5
20260505100054 18 246 11.3 14.5 0.00 0.00 0.00 41 984.3
20260505094550 18 223 12.9 24.1 0.00 0.00 0.00 42 984.5
20260505093058 18 275 16.1 17.7 0.00 0.00 0.00 42 984.5
20260505091615 18 226 4.8 14.5 0.00 0.00 0.00 43 984.4
20260505090057 19 284 11.3 14.5 0.00 0.00 0.00 38 984.7
20260505084555 18 257 8.0 12.9 0.00 0.00 0.00 40 984.5
20260505083051 17 267 9.7 16.1 0.00 0.00 0.00 43 984.3
20260505081557 18 268 16.1 17.7 0.00 0.00 0.00 41 984.5
20260505074547 20 250 12.9 16.1 0.00 0.00 0.00 35 984.8
20260505073049 20 254 14.5 20.9 0.00 0.00 0.00 34 985.0
20260505071556 20 246 17.7 20.9 0.00 0.00 0.00 36 985.1
20260505070050 20 248 16.1 17.7 0.00 0.00 0.00 35 985.1
20260505064547 21 248 16.1 20.9 0.00 0.00 0.00 32 985.0
20260505063058 21 238 17.7 22.5 0.00 0.00 0.00 31 985.2
20260505061606 21 238 19.3 24.1 0.00 0.00 0.00 31 985.3
20260505060041 21 228 19.3 25.7 0.00 0.00 0.00 31 985.3
20260505054541 20 227 14.5 22.5 0.00 0.00 0.00 33 985.4
20260505053045 20 259 9.7 14.5 0.00 0.00 0.00 36 985.5
20260505051605 21 279 8.0 17.7 0.00 0.00 0.00 34 985.4
20260505041546 22 248 14.5 19.3 0.00 0.00 0.00 32 985.6
20260505040039 22 242 14.5 17.7 0.00 0.00 0.00 31 985.8
20260505034538 23 230 11.3 16.1 0.00 0.00 0.00 29 985.6
20260505033042 24 243 4.8 8.0 0.00 0.00 0.00 25 985.6
20260505031541 24 286 4.8 8.0 0.00 0.00 0.00 23 985.4
20260505030041 24 246 4.8 6.4 0.00 0.00 0.00 22 985.4